Time,TemperatureF,DewpointF,PressureIn,WindDirection,WindDirectionDegrees,WindSpeedMPH,WindSpeedGustMPH,Humidity,HourlyPrecipIn,Conditions,Clouds,dailyrainin,SoftwareType,DateUTC
2013-04-19 00:05:00,78.3,58.7,30.00,East,90,3.0,10.0,51,0.00,,,-99.99,WeatherLink 5.5,2013-04-19 04:05:00,
2013-04-19 00:10:00,78.4,58.8,30.00,ESE,112,5.0,11.0,51,0.00,,,-99.99,WeatherLink 5.5,2013-04-19 04:10:00,
2013-04-19 00:15:00,78.5,59.4,29.99,East,90,3.0,10.0,52,0.00,,,-99.99,WeatherLink 5.5,2013-04-19 04:15:00,
2013-04-19 00:20:00,78.5,59.4,29.99,East,90,3.0,10.0,52,0.00,,,-99.99,WeatherLink 5.5,2013-04-19 04:20:00,
2013-04-19 00:25:00,78.5,59.4,30.02,East,90,4.0,11.0,52,0.00,,,-99.99,WeatherLink 5.5,2013-04-19 04:25:00,
2013-04-19 00:30:00,78.6,59.5,30.00,ESE,112,6.0,13.0,52,0.00,,,-99.99,WeatherLink 5.5,2013-04-19 04:30:00,
2013-04-19 00:35:00,78.6,59.5,30.00,ESE,112,6.0,13.0,52,0.00,,,-99.99,WeatherLink 5.5,2013-04-19 04:35:00,
2013-04-19 00:40:00,78.6,59.5,30.01,ESE,112,4.0,11.0,52,0.00,,,-99.99,WeatherLink 5.5,2013-04-19 04:40:00,
2013-04-19 00:45:00,78.6,59.5,30.01,ESE,112,4.0,11.0,52,0.00,,,-99.99,WeatherLink 5.5,2013-04-19 04:45:00,
2013-04-19 00:55:00,78.7,59.6,30.01,East,90,1.0,7.0,52,0.00,,,-99.99,WeatherLink 5.5,2013-04-19 04:55:00,
2013-04-19 01:00:00,78.9,59.8,30.00,ESE,112,3.0,13.0,52,0.00,,,-99.99,WeatherLink 5.5,2013-04-19 05:00:00,
2013-04-19 01:05:00,78.9,59.8,30.00,ESE,112,3.0,13.0,52,0.00,,,-99.99,WeatherLink 5.5,2013-04-19 05:05:00,
2013-04-19 01:10:00,78.9,59.8,29.99,ESE,112,7.0,14.0,52,0.00,,,-99.99,WeatherLink 5.5,2013-04-19 05:10:00,
2013-04-19 01:15:00,78.9,59.8,29.99,ESE,112,7.0,14.0,52,0.00,,,-99.99,WeatherLink 5.5,2013-04-19 05:15:00,
2013-04-19 01:20:00,78.8,59.7,29.98,ESE,112,3.0,12.0,52,0.00,,,-99.99,WeatherLink 5.5,2013-04-19 05:20:00,
2013-04-19 01:30:00,78.5,59.4,29.98,ESE,112,4.0,10.0,52,0.00,,,-99.99,WeatherLink 5.5,2013-04-19 05:30:00,
2013-04-19 01:35:00,78.3,59.8,29.99,ESE,112,1.0,7.0,53,0.00,,,-99.99,WeatherLink 5.5,2013-04-19 05:35:00,
2013-04-19 01:40:00,78.3,59.8,29.99,ESE,112,1.0,7.0,53,0.00,,,-99.99,WeatherLink 5.5,2013-04-19 05:40:00,
2013-04-19 01:45:00,78.3,59.8,30.00,ESE,112,2.0,9.0,53,0.00,,,-99.99,WeatherLink 5.5,2013-04-19 05:45:00,
2013-04-19 01:50:00,78.3,59.8,30.00,ESE,112,2.0,9.0,53,0.00,,,-99.99,WeatherLink 5.5,2013-04-19 05:50:00,
2013-04-19 01:55:00,78.1,59.6,30.00,SE,135,4.0,11.0,53,0.00,,,-99.99,WeatherLink 5.5,2013-04-19 05:55:00,
2013-04-19 02:00:00,78.1,59.6,30.00,SE,135,4.0,11.0,53,0.00,,,-99.99,WeatherLink 5.5,2013-04-19 06:00:00,
2013-04-19 02:10:00,77.9,59.4,29.97,SE,135,4.0,11.0,53,0.00,,,-99.99,WeatherLink 5.5,2013-04-19 06:10:00,
2013-04-19 02:15:00,77.7,59.2,29.98,SE,135,1.0,6.0,53,0.00,,,-99.99,WeatherLink 5.5,2013-04-19 06:15:00,
2013-04-19 02:20:00,77.7,59.2,29.98,SE,135,1.0,6.0,53,0.00,,,-99.99,WeatherLink 5.5,2013-04-19 06:20:00,
2013-04-19 02:25:00,77.6,59.6,29.96,SE,135,2.0,8.0,54,0.00,,,-99.99,WeatherLink 5.5,2013-04-19 06:25:00,
2013-04-19 02:30:00,77.5,59.0,29.96,SE,135,4.0,10.0,53,0.00,,,-99.99,WeatherLink 5.5,2013-04-19 06:30:00,
2013-04-19 02:35:00,77.5,59.0,29.96,SE,135,4.0,10.0,53,0.00,,,-99.99,WeatherLink 5.5,2013-04-19 06:35:00,
2013-04-19 02:40:00,77.5,59.0,29.98,SE,135,1.0,7.0,53,0.00,,,-99.99,WeatherLink 5.5,2013-04-19 06:40:00,
2013-04-19 02:45:00,77.5,59.0,29.98,SE,135,1.0,7.0,53,0.00,,,-99.99,WeatherLink 5.5,2013-04-19 06:45:00,
2013-04-19 02:50:00,77.5,59.0,29.96,SE,135,2.0,9.0,53,0.00,,,-99.99,WeatherLink 5.5,2013-04-19 06:50:00,
2013-04-19 02:55:00,77.5,59.0,29.96,SE,135,2.0,9.0,53,0.00,,,-99.99,WeatherLink 5.5,2013-04-19 06:55:00,
2013-04-19 03:00:00,77.5,59.5,29.98,SE,135,1.0,8.0,54,0.00,,,-99.99,WeatherLink 5.5,2013-04-19 07:00:00,
2013-04-19 03:05:00,77.5,59.5,29.98,SE,135,1.0,8.0,54,0.00,,,-99.99,WeatherLink 5.5,2013-04-19 07:05:00,
2013-04-19 03:10:00,77.5,59.5,29.95,SE,135,1.0,8.0,54,0.00,,,-99.99,WeatherLink 5.5,2013-04-19 07:10:00,
2013-04-19 03:15:00,77.5,59.5,29.95,SE,135,1.0,8.0,54,0.00,,,-99.99,WeatherLink 5.5,2013-04-19 07:15:00,
2013-04-19 03:20:00,77.6,60.7,29.97,SE,135,2.0,6.0,56,0.00,,,-99.99,WeatherLink 5.5,2013-04-19 07:20:00,
2013-04-19 03:25:00,77.6,60.7,29.97,SE,135,2.0,6.0,56,0.00,,,-99.99,WeatherLink 5.5,2013-04-19 07:25:00,
2013-04-19 03:30:00,78.1,60.6,29.96,SE,135,4.0,11.0,55,0.00,,,-99.99,WeatherLink 5.5,2013-04-19 07:30:00,
2013-04-19 03:35:00,78.1,60.6,29.96,SE,135,4.0,11.0,55,0.00,,,-99.99,WeatherLink 5.5,2013-04-19 07:35:00,
2013-04-19 03:40:00,77.6,61.2,29.96,SE,135,2.0,8.0,57,0.00,,,-99.99,WeatherLink 5.5,2013-04-19 07:40:00,
2013-04-19 03:45:00,77.6,61.2,29.96,SE,135,2.0,8.0,57,0.00,,,-99.99,WeatherLink 5.5,2013-04-19 07:45:00,
2013-04-19 03:50:00,77.4,61.9,29.96,ESE,112,2.0,10.0,59,0.00,,,-99.99,WeatherLink 5.5,2013-04-19 07:50:00,
2013-04-19 03:55:00,77.4,61.9,29.96,ESE,112,2.0,10.0,59,0.00,,,-99.99,WeatherLink 5.5,2013-04-19 07:55:00,
2013-04-19 04:00:00,77.7,62.2,29.97,SE,135,4.0,13.0,59,0.00,,,-99.99,WeatherLink 5.5,2013-04-19 08:00:00,
2013-04-19 04:05:00,77.7,62.2,29.97,SE,135,4.0,13.0,59,0.00,,,-99.99,WeatherLink 5.5,2013-04-19 08:05:00,
2013-04-19 04:10:00,77.7,61.3,29.95,SE,135,3.0,10.0,57,0.00,,,-99.99,WeatherLink 5.5,2013-04-19 08:10:00,
2013-04-19 04:15:00,77.7,61.3,29.95,SE,135,3.0,10.0,57,0.00,,,-99.99,WeatherLink 5.5,2013-04-19 08:15:00,
2013-04-19 04:20:00,77.6,60.2,29.96,SE,135,3.0,10.0,55,0.00,,,-99.99,WeatherLink 5.5,2013-04-19 08:20:00,
2013-04-19 04:25:00,77.6,60.2,29.96,SE,135,3.0,10.0,55,0.00,,,-99.99,WeatherLink 5.5,2013-04-19 08:25:00,
2013-04-19 04:30:00,77.4,59.5,29.97,SSE,157,3.0,11.0,54,0.00,,,-99.99,WeatherLink 5.5,2013-04-19 08:30:00,
2013-04-19 04:35:00,77.4,59.5,29.97,SSE,157,3.0,11.0,54,0.00,,,-99.99,WeatherLink 5.5,2013-04-19 08:35:00,
2013-04-19 04:40:00,77.4,59.5,29.97,SE,135,4.0,13.0,54,0.00,,,-99.99,WeatherLink 5.5,2013-04-19 08:40:00,
2013-04-19 04:45:00,77.4,59.5,29.97,SE,135,4.0,13.0,54,0.00,,,-99.99,WeatherLink 5.5,2013-04-19 08:45:00,
2013-04-19 04:50:00,77.4,58.9,29.95,SE,135,2.0,11.0,53,0.00,,,-99.99,WeatherLink 5.5,2013-04-19 08:50:00,
2013-04-19 04:55:00,77.3,58.8,29.96,SE,135,2.0,12.0,53,0.00,,,-99.99,WeatherLink 5.5,2013-04-19 08:55:00,
2013-04-19 05:00:00,77.3,58.8,29.96,SE,135,2.0,12.0,53,0.00,,,-99.99,WeatherLink 5.5,2013-04-19 09:00:00,
2013-04-19 05:05:00,77.1,58.1,29.97,SSE,157,4.0,8.0,52,0.00,,,-99.99,WeatherLink 5.5,2013-04-19 09:05:00,
2013-04-19 05:10:00,77.1,58.1,29.97,SSE,157,4.0,8.0,52,0.00,,,-99.99,WeatherLink 5.5,2013-04-19 09:10:00,
2013-04-19 05:15:00,77.1,58.1,29.96,SSE,157,3.0,8.0,52,0.00,,,-99.99,WeatherLink 5.5,2013-04-19 09:15:00,
2013-04-19 05:20:00,77.1,58.1,29.96,SSE,157,3.0,8.0,52,0.00,,,-99.99,WeatherLink 5.5,2013-04-19 09:20:00,
2013-04-19 05:25:00,77.1,58.1,29.93,SSE,157,2.0,12.0,52,0.00,,,-99.99,WeatherLink 5.5,2013-04-19 09:25:00,
2013-04-19 05:30:00,77.1,58.1,29.93,SSE,157,2.0,12.0,52,0.00,,,-99.99,WeatherLink 5.5,2013-04-19 09:30:00,
2013-04-19 05:35:00,77.0,57.5,29.97,SE,135,2.0,8.0,51,0.00,,,-99.99,WeatherLink 5.5,2013-04-19 09:35:00,
2013-04-19 05:40:00,77.0,57.5,29.97,SE,135,2.0,8.0,51,0.00,,,-99.99,WeatherLink 5.5,2013-04-19 09:40:00,
2013-04-19 05:45:00,76.9,57.9,29.98,SE,135,1.0,7.0,52,0.00,,,-99.99,WeatherLink 5.5,2013-04-19 09:45:00,
2013-04-19 05:50:00,76.9,57.9,29.98,SE,135,1.0,7.0,52,0.00,,,-99.99,WeatherLink 5.5,2013-04-19 09:50:00,
2013-04-19 05:55:00,76.8,58.4,29.96,SE,135,3.0,12.0,53,0.00,,,-99.99,WeatherLink 5.5,2013-04-19 09:55:00,
2013-04-19 06:00:00,76.8,58.4,29.96,SE,135,3.0,12.0,53,0.00,,,-99.99,WeatherLink 5.5,2013-04-19 10:00:00,
2013-04-19 06:05:00,76.7,58.3,29.99,SE,135,2.0,7.0,53,0.00,,,-99.99,WeatherLink 5.5,2013-04-19 10:05:00,
2013-04-19 06:10:00,76.7,58.3,29.99,SE,135,2.0,7.0,53,0.00,,,-99.99,WeatherLink 5.5,2013-04-19 10:10:00,
2013-04-19 06:15:00,76.7,58.3,29.98,SE,135,2.0,9.0,53,0.00,,,-99.99,WeatherLink 5.5,2013-04-19 10:15:00,
2013-04-19 06:20:00,76.7,58.3,29.98,SE,135,2.0,9.0,53,0.00,,,-99.99,WeatherLink 5.5,2013-04-19 10:20:00,
2013-04-19 06:25:00,76.6,58.2,29.99,SE,135,1.0,7.0,53,0.00,,,-99.99,WeatherLink 5.5,2013-04-19 10:25:00,
2013-04-19 06:30:00,76.6,58.2,29.99,SE,135,1.0,7.0,53,0.00,,,-99.99,WeatherLink 5.5,2013-04-19 10:30:00,
2013-04-19 06:35:00,76.3,57.9,29.97,SE,135,1.0,5.0,53,0.00,,,-99.99,WeatherLink 5.5,2013-04-19 10:35:00,
2013-04-19 06:40:00,76.3,57.9,29.97,SE,135,1.0,5.0,53,0.00,,,-99.99,WeatherLink 5.5,2013-04-19 10:40:00,
2013-04-19 06:45:00,76.3,57.4,29.98,SE,135,2.0,9.0,52,0.00,,,-99.99,WeatherLink 5.5,2013-04-19 10:45:00,
2013-04-19 06:50:00,76.3,57.4,29.98,SE,135,2.0,9.0,52,0.00,,,-99.99,WeatherLink 5.5,2013-04-19 10:50:00,
2013-04-19 06:55:00,76.3,56.8,29.98,SSE,157,3.0,11.0,51,0.00,,,-99.99,WeatherLink 5.5,2013-04-19 10:55:00,
2013-04-19 07:00:00,76.3,56.8,29.98,SSE,157,3.0,11.0,51,0.00,,,-99.99,WeatherLink 5.5,2013-04-19 11:00:00,
2013-04-19 07:05:00,76.6,57.7,29.99,SE,135,0.0,4.0,52,0.00,,,-99.99,WeatherLink 5.5,2013-04-19 11:05:00,
2013-04-19 07:10:00,76.6,57.7,29.99,SE,135,0.0,4.0,52,0.00,,,-99.99,WeatherLink 5.5,2013-04-19 11:10:00,
2013-04-19 07:15:00,76.5,57.0,30.00,SE,135,1.0,7.0,51,0.00,,,-99.99,WeatherLink 5.5,2013-04-19 11:15:00,
2013-04-19 07:20:00,76.5,57.0,30.00,SE,135,1.0,7.0,51,0.00,,,-99.99,WeatherLink 5.5,2013-04-19 11:20:00,
2013-04-19 07:25:00,76.5,57.0,29.99,SE,135,1.0,6.0,51,0.00,,,-99.99,WeatherLink 5.5,2013-04-19 11:25:00,
2013-04-19 07:30:00,76.9,57.4,30.01,SE,135,1.0,7.0,51,0.00,,,-99.99,WeatherLink 5.5,2013-04-19 11:30:00,
2013-04-19 07:35:00,76.9,57.4,30.01,SE,135,1.0,7.0,51,0.00,,,-99.99,WeatherLink 5.5,2013-04-19 11:35:00,
2013-04-19 07:40:00,77.7,58.7,29.99,SE,135,1.0,7.0,52,0.00,,,-99.99,WeatherLink 5.5,2013-04-19 11:40:00,
2013-04-19 07:45:00,77.7,58.7,29.99,SE,135,1.0,7.0,52,0.00,,,-99.99,WeatherLink 5.5,2013-04-19 11:45:00,
2013-04-19 07:50:00,78.5,62.5,30.00,SE,135,2.0,10.0,58,0.00,,,-99.99,WeatherLink 5.5,2013-04-19 11:50:00,
2013-04-19 07:55:00,78.5,62.5,30.00,SE,135,2.0,10.0,58,0.00,,,-99.99,WeatherLink 5.5,2013-04-19 11:55:00,
2013-04-19 08:00:00,79.1,68.5,30.00,SE,135,1.0,8.0,70,0.00,,,-99.99,WeatherLink 5.5,2013-04-19 12:00:00,
2013-04-19 08:05:00,79.1,68.5,30.00,SE,135,1.0,8.0,70,0.00,,,-99.99,WeatherLink 5.5,2013-04-19 12:05:00,
2013-04-19 08:10:00,79.6,73.6,30.01,SSE,157,3.0,10.0,82,0.00,,,-99.99,WeatherLink 5.5,2013-04-19 12:10:00,
2013-04-19 08:15:00,79.6,73.6,30.01,SSE,157,3.0,10.0,82,0.00,,,-99.99,WeatherLink 5.5,2013-04-19 12:15:00,
2013-04-19 08:20:00,79.6,74.0,30.01,SE,135,4.0,15.0,83,0.00,,,-99.99,WeatherLink 5.5,2013-04-19 12:20:00,
2013-04-19 08:25:00,79.6,74.0,30.01,SE,135,4.0,15.0,83,0.00,,,-99.99,WeatherLink 5.5,2013-04-19 12:25:00,
2013-04-19 08:31:00,80.1,76.9,30.01,SE,135,6.0,16.0,90,0.00,,,-99.99,WeatherLink 5.5,2013-04-19 12:31:00,
2013-04-19 08:35:00,80.0,78.1,30.02,SE,135,4.0,14.0,94,0.00,,,-99.99,WeatherLink 5.5,2013-04-19 12:35:00,
2013-04-19 08:40:00,80.0,78.1,30.02,SE,135,4.0,14.0,94,0.00,,,-99.99,WeatherLink 5.5,2013-04-19 12:40:00,
2013-04-19 08:45:00,80.6,78.7,30.02,SE,135,7.0,17.0,94,0.00,,,-99.99,WeatherLink 5.5,2013-04-19 12:45:00,
2013-04-19 08:50:00,80.6,78.7,30.02,SE,135,7.0,17.0,94,0.00,,,-99.99,WeatherLink 5.5,2013-04-19 12:50:00,
2013-04-19 08:55:00,81.5,80.6,30.02,SE,135,3.0,13.0,97,0.00,,,-99.99,WeatherLink 5.5,2013-04-19 12:55:00,
2013-04-19 09:00:00,81.5,80.6,30.02,SE,135,3.0,13.0,97,0.00,,,-99.99,WeatherLink 5.5,2013-04-19 13:00:00,
2013-04-19 09:05:00,82.3,82.3,30.02,SE,135,6.0,20.0,100,0.00,,,-99.99,WeatherLink 5.5,2013-04-19 13:05:00,
2013-04-19 09:10:00,82.3,82.3,30.02,SE,135,6.0,20.0,100,0.00,,,-99.99,WeatherLink 5.5,2013-04-19 13:10:00,
2013-04-19 09:15:00,82.2,82.2,30.02,SE,135,5.0,16.0,100,0.00,,,-99.99,WeatherLink 5.5,2013-04-19 13:15:00,
2013-04-19 09:20:00,82.2,82.2,30.02,SE,135,5.0,16.0,100,0.00,,,-99.99,WeatherLink 5.5,2013-04-19 13:20:00,
2013-04-19 09:25:00,82.6,82.6,30.02,SE,135,5.0,15.0,100,0.00,,,-99.99,WeatherLink 5.5,2013-04-19 13:25:00,
2013-04-19 09:30:00,82.6,82.6,30.02,SE,135,5.0,15.0,100,0.00,,,-99.99,WeatherLink 5.5,2013-04-19 13:30:00,
2013-04-19 09:35:00,83.1,83.1,30.03,SE,135,7.0,14.0,100,0.00,,,-99.99,WeatherLink 5.5,2013-04-19 13:35:00,
2013-04-19 09:40:00,83.8,-99.9,30.03,SE,135,5.0,12.0,-999,0.00,,,-99.99,WeatherLink 5.5,2013-04-19 13:40:00,
2013-04-19 09:45:00,83.8,-99.9,30.03,SE,135,5.0,12.0,-999,0.00,,,-99.99,WeatherLink 5.5,2013-04-19 13:45:00,
2013-04-19 09:50:00,83.7,83.7,30.03,SE,135,6.0,18.0,100,0.00,,,-99.99,WeatherLink 5.5,2013-04-19 13:50:00,
2013-04-19 09:55:00,83.7,83.7,30.03,SE,135,6.0,18.0,100,0.00,,,-99.99,WeatherLink 5.5,2013-04-19 13:55:00,
2013-04-19 10:00:00,83.6,83.6,30.03,SE,135,3.0,13.0,100,0.00,,,-99.99,WeatherLink 5.5,2013-04-19 14:00:00,
2013-04-19 10:05:00,83.6,83.6,30.03,SE,135,3.0,13.0,100,0.00,,,-99.99,WeatherLink 5.5,2013-04-19 14:05:00,
2013-04-19 10:10:00,84.7,84.7,30.03,SE,135,5.0,16.0,100,0.00,,,-99.99,WeatherLink 5.5,2013-04-19 14:10:00,
2013-04-19 10:15:00,84.7,84.7,30.03,SE,135,5.0,16.0,100,0.00,,,-99.99,WeatherLink 5.5,2013-04-19 14:15:00,
2013-04-19 10:20:00,85.1,-99.9,30.03,SE,135,6.0,17.0,-999,0.00,,,-99.99,WeatherLink 5.5,2013-04-19 14:20:00,
2013-04-19 10:25:00,84.5,84.5,30.03,SE,135,6.0,16.0,100,0.00,,,-99.99,WeatherLink 5.5,2013-04-19 14:25:00,
2013-04-19 10:30:00,84.5,84.5,30.03,SE,135,6.0,16.0,100,0.00,,,-99.99,WeatherLink 5.5,2013-04-19 14:30:00,
2013-04-19 10:35:00,85.1,-99.9,30.03,SE,135,6.0,16.0,-999,0.00,,,-99.99,WeatherLink 5.5,2013-04-19 14:35:00,
2013-04-19 10:40:00,85.1,-99.9,30.03,SE,135,6.0,16.0,-999,0.00,,,-99.99,WeatherLink 5.5,2013-04-19 14:40:00,
2013-04-19 10:45:00,85.5,85.5,30.03,SE,135,7.0,14.0,100,0.00,,,-99.99,WeatherLink 5.5,2013-04-19 14:45:00,
2013-04-19 10:50:00,85.5,85.5,30.03,SE,135,7.0,14.0,100,0.00,,,-99.99,WeatherLink 5.5,2013-04-19 14:50:00,
2013-04-19 10:55:00,85.4,85.4,30.03,SE,135,6.0,16.0,100,0.00,,,-99.99,WeatherLink 5.5,2013-04-19 14:55:00,
2013-04-19 11:00:00,85.4,85.4,30.03,SE,135,6.0,16.0,100,0.00,,,-99.99,WeatherLink 5.5,2013-04-19 15:00:00,
2013-04-19 11:05:00,86.2,86.2,30.03,SE,135,6.0,16.0,100,0.00,,,-99.99,WeatherLink 5.5,2013-04-19 15:05:00,
2013-04-19 11:10:00,86.2,86.2,30.03,SE,135,6.0,16.0,100,0.00,,,-99.99,WeatherLink 5.5,2013-04-19 15:10:00,
2013-04-19 11:15:00,86.4,86.4,30.03,SE,135,5.0,15.0,100,0.00,,,-99.99,WeatherLink 5.5,2013-04-19 15:15:00,
2013-04-19 11:20:00,86.3,86.3,30.03,ESE,112,8.0,18.0,100,0.00,,,-99.99,WeatherLink 5.5,2013-04-19 15:20:00,
2013-04-19 11:25:00,86.3,86.3,30.03,ESE,112,8.0,18.0,100,0.00,,,-99.99,WeatherLink 5.5,2013-04-19 15:25:00,
2013-04-19 11:30:00,86.1,86.1,30.03,ESE,112,8.0,18.0,100,0.00,,,-99.99,WeatherLink 5.5,2013-04-19 15:30:00,
2013-04-19 11:35:00,86.1,86.1,30.03,ESE,112,8.0,18.0,100,0.00,,,-99.99,WeatherLink 5.5,2013-04-19 15:35:00,
2013-04-19 11:40:00,86.7,86.7,30.04,SSE,157,4.0,13.0,100,0.00,,,-99.99,WeatherLink 5.5,2013-04-19 15:40:00,
2013-04-19 11:45:00,86.5,86.5,30.03,SSE,157,7.0,19.0,100,0.00,,,-99.99,WeatherLink 5.5,2013-04-19 15:45:00,
2013-04-19 11:50:00,86.5,86.5,30.03,SSE,157,7.0,19.0,100,0.00,,,-99.99,WeatherLink 5.5,2013-04-19 15:50:00,
2013-04-19 11:55:00,87.2,87.2,30.03,SSE,157,7.0,21.0,100,0.00,,,-99.99,WeatherLink 5.5,2013-04-19 15:55:00,
2013-04-19 12:00:00,87.2,87.2,30.03,SSE,157,7.0,21.0,100,0.00,,,-99.99,WeatherLink 5.5,2013-04-19 16:00:00,
2013-04-19 12:05:00,87.7,87.4,30.03,SE,135,8.0,16.0,99,0.00,,,-99.99,WeatherLink 5.5,2013-04-19 16:05:00,
2013-04-19 12:10:00,86.3,85.7,30.03,SE,135,6.0,14.0,98,0.00,,,-99.99,WeatherLink 5.5,2013-04-19 16:10:00,
2013-04-19 12:15:00,86.3,85.7,30.03,SE,135,6.0,14.0,98,0.00,,,-99.99,WeatherLink 5.5,2013-04-19 16:15:00,
2013-04-19 12:20:00,86.3,86.0,30.03,SE,135,7.0,19.0,99,0.00,,,-99.99,WeatherLink 5.5,2013-04-19 16:20:00,
2013-04-19 12:25:00,86.3,86.0,30.03,SE,135,7.0,19.0,99,0.00,,,-99.99,WeatherLink 5.5,2013-04-19 16:25:00,
2013-04-19 12:30:00,86.9,86.9,30.02,SSE,157,3.0,11.0,100,0.00,,,-99.99,WeatherLink 5.5,2013-04-19 16:30:00,
2013-04-19 12:35:00,86.9,86.9,30.02,SSE,157,3.0,11.0,100,0.00,,,-99.99,WeatherLink 5.5,2013-04-19 16:35:00,
2013-04-19 12:40:00,88.0,87.0,30.02,SE,135,7.0,14.0,97,0.00,,,-99.99,WeatherLink 5.5,2013-04-19 16:40:00,
2013-04-19 12:45:00,88.0,87.0,30.02,SE,135,7.0,14.0,97,0.00,,,-99.99,WeatherLink 5.5,2013-04-19 16:45:00,
2013-04-19 12:50:00,88.3,86.0,30.02,SE,135,8.0,17.0,93,0.00,,,-99.99,WeatherLink 5.5,2013-04-19 16:50:00,
2013-04-19 12:55:00,88.3,86.0,30.02,SE,135,8.0,17.0,93,0.00,,,-99.99,WeatherLink 5.5,2013-04-19 16:55:00,
2013-04-19 13:00:00,88.0,85.7,30.01,SE,135,8.0,18.0,93,0.00,,,-99.99,WeatherLink 5.5,2013-04-19 17:00:00,
2013-04-19 13:05:00,88.0,85.7,30.01,SE,135,8.0,18.0,93,0.00,,,-99.99,WeatherLink 5.5,2013-04-19 17:05:00,
2013-04-19 13:10:00,88.4,85.1,30.01,ESE,112,8.0,17.0,90,0.00,,,-99.99,WeatherLink 5.5,2013-04-19 17:10:00,
2013-04-19 13:15:00,88.4,85.1,30.01,ESE,112,8.0,17.0,90,0.00,,,-99.99,WeatherLink 5.5,2013-04-19 17:15:00,
2013-04-19 13:20:00,88.0,84.7,30.01,ESE,112,8.0,21.0,90,0.00,,,-99.99,WeatherLink 5.5,2013-04-19 17:20:00,
2013-04-19 13:25:00,88.0,84.7,30.01,ESE,112,8.0,21.0,90,0.00,,,-99.99,WeatherLink 5.5,2013-04-19 17:25:00,
2013-04-19 13:30:00,87.7,85.4,30.01,SSE,157,6.0,15.0,93,0.00,,,-99.99,WeatherLink 5.5,2013-04-19 17:30:00,
2013-04-19 13:35:00,87.7,85.4,30.01,SSE,157,6.0,15.0,93,0.00,,,-99.99,WeatherLink 5.5,2013-04-19 17:35:00,
2013-04-19 13:40:00,88.5,85.9,30.01,SE,135,6.0,14.0,92,0.00,,,-99.99,WeatherLink 5.5,2013-04-19 17:40:00,
2013-04-19 13:45:00,88.5,85.9,30.01,SE,135,6.0,14.0,92,0.00,,,-99.99,WeatherLink 5.5,2013-04-19 17:45:00,
2013-04-19 13:50:00,87.7,84.7,30.01,SE,135,7.0,16.0,91,0.00,,,-99.99,WeatherLink 5.5,2013-04-19 17:50:00,
2013-04-19 13:55:00,87.7,84.7,30.01,SE,135,7.0,16.0,91,0.00,,,-99.99,WeatherLink 5.5,2013-04-19 17:55:00,
2013-04-19 14:00:00,88.5,85.2,30.01,SE,135,8.0,16.0,90,0.00,,,-99.99,WeatherLink 5.5,2013-04-19 18:00:00,
2013-04-19 14:05:00,88.5,85.2,30.01,SE,135,8.0,16.0,90,0.00,,,-99.99,WeatherLink 5.5,2013-04-19 18:05:00,
2013-04-19 14:10:00,89.3,85.6,30.01,SE,135,5.0,14.0,89,0.00,,,-99.99,WeatherLink 5.5,2013-04-19 18:10:00,
2013-04-19 14:15:00,89.3,85.6,30.01,SE,135,5.0,14.0,89,0.00,,,-99.99,WeatherLink 5.5,2013-04-19 18:15:00,
2013-04-19 14:20:00,88.8,84.4,30.00,SE,135,9.0,18.0,87,0.00,,,-99.99,WeatherLink 5.5,2013-04-19 18:20:00,
2013-04-19 14:25:00,88.8,84.4,30.00,SE,135,9.0,18.0,87,0.00,,,-99.99,WeatherLink 5.5,2013-04-19 18:25:00,
2013-04-19 14:30:00,88.8,85.1,30.00,SSE,157,8.0,16.0,89,0.00,,,-99.99,WeatherLink 5.5,2013-04-19 18:30:00,
2013-04-19 14:35:00,88.8,85.1,30.00,SSE,157,8.0,16.0,89,0.00,,,-99.99,WeatherLink 5.5,2013-04-19 18:35:00,
2013-04-19 14:40:00,89.8,86.1,29.99,SE,135,6.0,14.0,89,0.00,,,-99.99,WeatherLink 5.5,2013-04-19 18:40:00,
2013-04-19 14:45:00,89.8,86.1,29.99,SE,135,6.0,14.0,89,0.00,,,-99.99,WeatherLink 5.5,2013-04-19 18:45:00,
2013-04-19 14:50:00,89.7,86.4,29.99,SE,135,5.0,15.0,90,0.00,,,-99.99,WeatherLink 5.5,2013-04-19 18:50:00,
2013-04-19 14:55:00,89.7,86.4,29.99,SE,135,5.0,15.0,90,0.00,,,-99.99,WeatherLink 5.5,2013-04-19 18:55:00,
2013-04-19 15:00:00,89.6,84.5,29.99,SSE,157,6.0,14.0,85,0.00,,,-99.99,WeatherLink 5.5,2013-04-19 19:00:00,
2013-04-19 15:05:00,89.6,84.5,29.99,SSE,157,6.0,14.0,85,0.00,,,-99.99,WeatherLink 5.5,2013-04-19 19:05:00,
2013-04-19 15:10:00,89.5,84.4,29.99,SE,135,6.0,15.0,85,0.00,,,-99.99,WeatherLink 5.5,2013-04-19 19:10:00,
2013-04-19 15:15:00,89.5,84.4,29.99,SE,135,6.0,15.0,85,0.00,,,-99.99,WeatherLink 5.5,2013-04-19 19:15:00,
2013-04-19 15:20:00,89.4,83.2,29.98,SE,135,7.0,14.0,82,0.00,,,-99.99,WeatherLink 5.5,2013-04-19 19:20:00,
2013-04-19 15:25:00,89.4,83.2,29.98,SE,135,7.0,14.0,82,0.00,,,-99.99,WeatherLink 5.5,2013-04-19 19:25:00,
2013-04-19 15:30:00,89.5,81.7,29.98,SSE,157,8.0,16.0,78,0.00,,,-99.99,WeatherLink 5.5,2013-04-19 19:30:00,
2013-04-19 15:35:00,89.5,81.7,29.98,SSE,157,8.0,16.0,78,0.00,,,-99.99,WeatherLink 5.5,2013-04-19 19:35:00,
2013-04-19 15:40:00,89.5,82.1,29.97,SE,135,7.0,14.0,79,0.00,,,-99.99,WeatherLink 5.5,2013-04-19 19:40:00,
2013-04-19 15:45:00,89.5,82.1,29.97,SE,135,7.0,14.0,79,0.00,,,-99.99,WeatherLink 5.5,2013-04-19 19:45:00,
2013-04-19 15:50:00,89.5,80.9,29.97,SE,135,5.0,14.0,76,0.00,,,-99.99,WeatherLink 5.5,2013-04-19 19:50:00,
2013-04-19 15:55:00,89.5,80.9,29.97,SE,135,5.0,14.0,76,0.00,,,-99.99,WeatherLink 5.5,2013-04-19 19:55:00,
2013-04-19 16:00:00,89.6,81.4,29.96,SE,135,6.0,16.0,77,0.00,,,-99.99,WeatherLink 5.5,2013-04-19 20:00:00,
2013-04-19 16:05:00,89.6,81.4,29.96,SE,135,6.0,16.0,77,0.00,,,-99.99,WeatherLink 5.5,2013-04-19 20:05:00,
2013-04-19 16:10:00,89.7,81.1,29.96,SSE,157,6.0,18.0,76,0.00,,,-99.99,WeatherLink 5.5,2013-04-19 20:10:00,
2013-04-19 16:15:00,89.3,81.5,29.95,SE,135,5.0,15.0,78,0.00,,,-99.99,WeatherLink 5.5,2013-04-19 20:15:00,
2013-04-19 16:20:00,89.3,81.5,29.95,SE,135,5.0,15.0,78,0.00,,,-99.99,WeatherLink 5.5,2013-04-19 20:20:00,
2013-04-19 16:25:00,89.0,80.8,29.95,SE,135,6.0,16.0,77,0.00,,,-99.99,WeatherLink 5.5,2013-04-19 20:25:00,
2013-04-19 16:30:00,89.0,80.8,29.95,SE,135,6.0,16.0,77,0.00,,,-99.99,WeatherLink 5.5,2013-04-19 20:30:00,
2013-04-19 16:35:00,88.9,81.5,29.95,SE,135,5.0,12.0,79,0.00,,,-99.99,WeatherLink 5.5,2013-04-19 20:35:00,
2013-04-19 16:40:00,89.5,80.5,29.95,ESE,112,3.0,12.0,75,0.00,,,-99.99,WeatherLink 5.5,2013-04-19 20:40:00,
2013-04-19 16:45:00,89.5,80.5,29.95,ESE,112,3.0,12.0,75,0.00,,,-99.99,WeatherLink 5.5,2013-04-19 20:45:00,
2013-04-19 16:50:00,89.1,79.7,29.94,SSE,157,6.0,18.0,74,0.00,,,-99.99,WeatherLink 5.5,2013-04-19 20:50:00,
2013-04-19 16:55:00,89.1,79.7,29.94,SSE,157,6.0,18.0,74,0.00,,,-99.99,WeatherLink 5.5,2013-04-19 20:55:00,
2013-04-19 17:00:00,88.3,78.1,29.94,SSE,157,7.0,15.0,72,0.00,,,-99.99,WeatherLink 5.5,2013-04-19 21:00:00,
2013-04-19 17:05:00,88.3,78.1,29.94,SSE,157,7.0,15.0,72,0.00,,,-99.99,WeatherLink 5.5,2013-04-19 21:05:00,
2013-04-19 17:10:00,87.9,78.6,29.94,SE,135,6.0,14.0,74,0.00,,,-99.99,WeatherLink 5.5,2013-04-19 21:10:00,
2013-04-19 17:15:00,87.1,79.4,29.94,SSE,157,6.0,17.0,78,0.00,,,-99.99,WeatherLink 5.5,2013-04-19 21:15:00,
2013-04-19 17:20:00,87.1,79.4,29.94,SSE,157,6.0,17.0,78,0.00,,,-99.99,WeatherLink 5.5,2013-04-19 21:20:00,
2013-04-19 17:25:00,86.8,78.7,29.94,SSE,157,9.0,16.0,77,0.00,,,-99.99,WeatherLink 5.5,2013-04-19 21:25:00,
2013-04-19 17:30:00,86.6,78.9,29.95,SE,135,6.0,14.0,78,0.00,,,-99.99,WeatherLink 5.5,2013-04-19 21:30:00,
2013-04-19 17:35:00,86.6,78.9,29.95,SE,135,6.0,14.0,78,0.00,,,-99.99,WeatherLink 5.5,2013-04-19 21:35:00,
2013-04-19 17:40:00,85.2,79.4,29.95,SSE,157,6.0,18.0,83,0.00,,,-99.99,WeatherLink 5.5,2013-04-19 21:40:00,
2013-04-19 17:45:00,85.2,79.4,29.95,SSE,157,6.0,18.0,83,0.00,,,-99.99,WeatherLink 5.5,2013-04-19 21:45:00,
2013-04-19 17:50:00,84.4,80.1,29.95,SSE,157,5.0,13.0,87,0.00,,,-99.99,WeatherLink 5.5,2013-04-19 21:50:00,
2013-04-19 17:55:00,84.4,80.1,29.95,SSE,157,5.0,13.0,87,0.00,,,-99.99,WeatherLink 5.5,2013-04-19 21:55:00,
2013-04-19 18:00:00,84.9,80.9,29.95,SE,135,7.0,15.0,88,0.00,,,-99.99,WeatherLink 5.5,2013-04-19 22:00:00,
2013-04-19 18:05:00,84.9,80.9,29.95,SE,135,7.0,15.0,88,0.00,,,-99.99,WeatherLink 5.5,2013-04-19 22:05:00,
2013-04-19 18:10:00,84.8,81.9,29.95,SE,135,4.0,11.0,91,0.00,,,-99.99,WeatherLink 5.5,2013-04-19 22:10:00,
2013-04-19 18:15:00,84.8,81.9,29.95,SE,135,4.0,11.0,91,0.00,,,-99.99,WeatherLink 5.5,2013-04-19 22:15:00,
2013-04-19 18:20:00,84.2,81.6,29.95,SSE,157,6.0,16.0,92,0.00,,,-99.99,WeatherLink 5.5,2013-04-19 22:20:00,
2013-04-19 18:25:00,84.2,81.6,29.95,SSE,157,6.0,16.0,92,0.00,,,-99.99,WeatherLink 5.5,2013-04-19 22:25:00,
2013-04-19 18:30:00,84.0,81.8,29.95,SE,135,5.0,13.0,93,0.00,,,-99.99,WeatherLink 5.5,2013-04-19 22:30:00,
2013-04-19 18:35:00,84.0,81.8,29.95,SE,135,5.0,13.0,93,0.00,,,-99.99,WeatherLink 5.5,2013-04-19 22:35:00,
2013-04-19 18:40:00,84.1,81.9,29.95,SE,135,7.0,16.0,93,0.00,,,-99.99,WeatherLink 5.5,2013-04-19 22:40:00,
2013-04-19 18:45:00,83.4,81.5,29.95,SE,135,6.0,14.0,94,0.00,,,-99.99,WeatherLink 5.5,2013-04-19 22:45:00,
2013-04-19 18:50:00,83.4,81.5,29.95,SE,135,6.0,14.0,94,0.00,,,-99.99,WeatherLink 5.5,2013-04-19 22:50:00,
2013-04-19 18:55:00,82.9,81.6,29.95,SSE,157,5.0,11.0,96,0.00,,,-99.99,WeatherLink 5.5,2013-04-19 22:55:00,
2013-04-19 19:00:00,82.9,81.6,29.95,SSE,157,5.0,11.0,96,0.00,,,-99.99,WeatherLink 5.5,2013-04-19 23:00:00,
2013-04-19 19:05:00,82.8,81.9,29.95,SSE,157,4.0,11.0,97,0.00,,,-99.99,WeatherLink 5.5,2013-04-19 23:05:00,
2013-04-19 19:10:00,82.7,82.4,29.95,SE,135,2.0,8.0,99,0.00,,,-99.99,WeatherLink 5.5,2013-04-19 23:10:00,
2013-04-19 19:15:00,82.7,82.4,29.95,SE,135,2.0,8.0,99,0.00,,,-99.99,WeatherLink 5.5,2013-04-19 23:15:00,
2013-04-19 19:20:00,82.3,82.3,29.94,SE,135,5.0,11.0,100,0.00,,,-99.99,WeatherLink 5.5,2013-04-19 23:20:00,
2013-04-19 19:25:00,82.3,82.3,29.94,SE,135,5.0,11.0,100,0.00,,,-99.99,WeatherLink 5.5,2013-04-19 23:25:00,
2013-04-19 19:30:00,82.0,82.0,29.94,SSE,157,5.0,15.0,100,0.00,,,-99.99,WeatherLink 5.5,2013-04-19 23:30:00,
2013-04-19 19:35:00,82.0,82.0,29.94,SSE,157,5.0,15.0,100,0.00,,,-99.99,WeatherLink 5.5,2013-04-19 23:35:00,
2013-04-19 19:40:00,81.5,81.5,29.95,SE,135,2.0,7.0,100,0.00,,,-99.99,WeatherLink 5.5,2013-04-19 23:40:00,
2013-04-19 19:45:00,81.5,81.5,29.95,SE,135,2.0,7.0,100,0.00,,,-99.99,WeatherLink 5.5,2013-04-19 23:45:00,
2013-04-19 19:50:00,81.2,81.2,29.96,SSE,157,3.0,11.0,100,0.00,,,-99.99,WeatherLink 5.5,2013-04-19 23:50:00,
2013-04-19 19:55:00,81.2,81.2,29.96,SSE,157,3.0,11.0,100,0.00,,,-99.99,WeatherLink 5.5,2013-04-19 23:55:00,
2013-04-19 20:00:00,81.0,81.0,29.98,SE,135,1.0,5.0,100,0.00,,,-99.99,WeatherLink 5.5,2013-04-20 00:00:00,
2013-04-19 20:05:00,81.0,81.0,29.98,SE,135,1.0,5.0,100,0.00,,,-99.99,WeatherLink 5.5,2013-04-20 00:05:00,
2013-04-19 20:10:00,80.9,80.6,29.98,SE,135,1.0,7.0,99,0.00,,,-99.99,WeatherLink 5.5,2013-04-20 00:10:00,
2013-04-19 20:15:00,80.9,80.6,29.98,SE,135,1.0,7.0,99,0.00,,,-99.99,WeatherLink 5.5,2013-04-20 00:15:00,
2013-04-19 20:20:00,80.8,80.5,29.99,SE,135,2.0,8.0,99,0.00,,,-99.99,WeatherLink 5.5,2013-04-20 00:20:00,
2013-04-19 20:25:00,80.8,80.5,29.99,SE,135,2.0,8.0,99,0.00,,,-99.99,WeatherLink 5.5,2013-04-20 00:25:00,
2013-04-19 20:30:00,80.7,80.1,29.99,SE,135,1.0,4.0,98,0.00,,,-99.99,WeatherLink 5.5,2013-04-20 00:30:00,
2013-04-19 20:35:00,80.7,80.1,29.99,SE,135,1.0,4.0,98,0.00,,,-99.99,WeatherLink 5.5,2013-04-20 00:35:00,
2013-04-19 20:40:00,80.4,79.2,29.99,SE,135,2.0,8.0,96,0.00,,,-99.99,WeatherLink 5.5,2013-04-20 00:40:00,
2013-04-19 20:45:00,80.4,79.2,29.99,SE,135,2.0,8.0,96,0.00,,,-99.99,WeatherLink 5.5,2013-04-20 00:45:00,
2013-04-19 20:50:00,80.2,78.6,29.99,SE,135,2.0,8.0,95,0.00,,,-99.99,WeatherLink 5.5,2013-04-20 00:50:00,
2013-04-19 20:55:00,80.2,78.6,29.99,SE,135,2.0,8.0,95,0.00,,,-99.99,WeatherLink 5.5,2013-04-20 00:55:00,
2013-04-19 21:00:00,80.1,78.2,30.00,SE,135,1.0,7.0,94,0.00,,,-99.99,WeatherLink 5.5,2013-04-20 01:00:00,
2013-04-19 21:05:00,80.1,78.2,30.00,SE,135,1.0,7.0,94,0.00,,,-99.99,WeatherLink 5.5,2013-04-20 01:05:00,
2013-04-19 21:10:00,80.0,77.8,30.00,SE,135,1.0,6.0,93,0.00,,,-99.99,WeatherLink 5.5,2013-04-20 01:10:00,
2013-04-19 21:15:00,80.0,77.8,30.00,SE,135,1.0,6.0,93,0.00,,,-99.99,WeatherLink 5.5,2013-04-20 01:15:00,
2013-04-19 21:20:00,79.9,77.0,30.00,SE,135,1.0,5.0,91,0.00,,,-99.99,WeatherLink 5.5,2013-04-20 01:20:00,
2013-04-19 21:25:00,79.9,77.0,30.00,SE,135,1.0,5.0,91,0.00,,,-99.99,WeatherLink 5.5,2013-04-20 01:25:00,
2013-04-19 21:30:00,79.8,76.3,30.01,SE,135,0.0,4.0,89,0.00,,,-99.99,WeatherLink 5.5,2013-04-20 01:30:00,
2013-04-19 21:35:00,79.8,76.3,30.01,SE,135,0.0,4.0,89,0.00,,,-99.99,WeatherLink 5.5,2013-04-20 01:35:00,
2013-04-19 21:40:00,79.8,76.3,30.01,SE,135,2.0,9.0,89,0.00,,,-99.99,WeatherLink 5.5,2013-04-20 01:40:00,
2013-04-19 21:50:00,79.8,75.6,30.01,SE,135,2.0,7.0,87,0.00,,,-99.99,WeatherLink 5.5,2013-04-20 01:50:00,
2013-04-19 21:55:00,79.7,75.5,30.02,SE,135,1.0,7.0,87,0.00,,,-99.99,WeatherLink 5.5,2013-04-20 01:55:00,
2013-04-19 22:00:00,79.7,75.5,30.02,SE,135,1.0,7.0,87,0.00,,,-99.99,WeatherLink 5.5,2013-04-20 02:00:00,
2013-04-19 22:05:00,79.6,74.3,30.02,SE,135,1.0,4.0,84,0.00,,,-99.99,WeatherLink 5.5,2013-04-20 02:05:00,
2013-04-19 22:10:00,79.6,74.3,30.02,SE,135,1.0,4.0,84,0.00,,,-99.99,WeatherLink 5.5,2013-04-20 02:10:00,
2013-04-19 22:15:00,79.6,73.6,30.02,North,-999,0.0,1.0,82,0.00,,,-99.99,WeatherLink 5.5,2013-04-20 02:15:00,
2013-04-19 22:20:00,79.6,73.6,30.02,North,-999,0.0,1.0,82,0.00,,,-99.99,WeatherLink 5.5,2013-04-20 02:20:00,
2013-04-19 22:25:00,79.5,73.5,30.02,SE,135,0.0,1.0,82,0.00,,,-99.99,WeatherLink 5.5,2013-04-20 02:25:00,
2013-04-19 22:30:00,79.5,73.5,30.02,SE,135,0.0,1.0,82,0.00,,,-99.99,WeatherLink 5.5,2013-04-20 02:30:00,
2013-04-19 22:35:00,79.3,71.8,30.01,SE,135,0.0,5.0,78,0.00,,,-99.99,WeatherLink 5.5,2013-04-20 02:35:00,
2013-04-19 22:40:00,79.3,71.8,30.01,SE,135,0.0,5.0,78,0.00,,,-99.99,WeatherLink 5.5,2013-04-20 02:40:00,
2013-04-19 22:45:00,79.0,70.0,30.01,SE,135,0.0,1.0,74,0.00,,,-99.99,WeatherLink 5.5,2013-04-20 02:45:00,
2013-04-19 22:50:00,79.0,70.0,30.01,SE,135,0.0,1.0,74,0.00,,,-99.99,WeatherLink 5.5,2013-04-20 02:50:00,
2013-04-19 22:55:00,78.8,68.6,30.02,SE,135,0.0,1.0,71,0.00,,,-99.99,WeatherLink 5.5,2013-04-20 02:55:00,
2013-04-19 23:00:00,78.6,64.9,30.02,SE,135,0.0,3.0,63,0.00,,,-99.99,WeatherLink 5.5,2013-04-20 03:00:00,
2013-04-19 23:05:00,78.6,64.9,30.02,SE,135,0.0,3.0,63,0.00,,,-99.99,WeatherLink 5.5,2013-04-20 03:05:00,
2013-04-19 23:10:00,78.5,61.5,30.02,SE,135,0.0,2.0,56,0.00,,,-99.99,WeatherLink 5.5,2013-04-20 03:10:00,
2013-04-19 23:15:00,78.5,61.5,30.02,SE,135,0.0,2.0,56,0.00,,,-99.99,WeatherLink 5.5,2013-04-20 03:15:00,
2013-04-19 23:20:00,78.5,58.9,30.02,SE,135,1.0,6.0,51,0.00,,,-99.99,WeatherLink 5.5,2013-04-20 03:20:00,
2013-04-19 23:25:00,78.5,58.9,30.02,SE,135,1.0,6.0,51,0.00,,,-99.99,WeatherLink 5.5,2013-04-20 03:25:00,
2013-04-19 23:30:00,78.6,58.4,30.01,SE,135,1.0,7.0,50,0.00,,,-99.99,WeatherLink 5.5,2013-04-20 03:30:00,
2013-04-19 23:35:00,78.6,58.4,30.01,SE,135,1.0,7.0,50,0.00,,,-99.99,WeatherLink 5.5,2013-04-20 03:35:00,
2013-04-19 23:40:00,78.5,58.3,29.99,SE,135,2.0,9.0,50,0.00,,,-99.99,WeatherLink 5.5,2013-04-20 03:40:00,
2013-04-19 23:45:00,78.5,58.3,29.99,SE,135,2.0,9.0,50,0.00,,,-99.99,WeatherLink 5.5,2013-04-20 03:45:00,
2013-04-19 23:50:00,78.4,58.2,30.02,SE,135,0.0,6.0,50,0.00,,,-99.99,WeatherLink 5.5,2013-04-20 03:50:00,
2013-04-19 23:55:00,78.4,58.2,30.02,SE,135,0.0,6.0,50,0.00,,,-99.99,WeatherLink 5.5,2013-04-20 03:55:00,